W7VEE-2 Weather Reports


Display with metric or nautical units.
time (UTC)temp
F
wind
direction
speed
MPH
gust
MPH
rain 1hr
in
rain 24hr
in
rain mn
in
humidity
%
barometer
mb
20201001170834 72 67 0.0 0.0 0.00 0.00 0.00
20201001164344 70 180 2.0 3.0 0.00 0.00 0.00
20201001163126 67 67 0.0 2.0 0.00 0.00 0.00
20201001161855 65 213 0.0 1.0 0.00 0.00 0.00
20201001160632 61 337 0.0 0.0 0.00 0.00 0.00
20201001155405 60 0 1.0 2.0 0.00 0.00 0.00
20201001154141 57 152 0.0 0.0 0.00 0.00 0.00
20201001152915 52 184 0.0 0.0 0.00 0.00 0.00
20201001150431 45 337 0.0 0.0 0.00 0.00 0.00
20201001145200 43 292 0.0 0.0 0.00 0.00 0.00
20201001143935 41 244 0.0 0.0 0.00 0.00 0.00
20201001142710 40 337 0.0 0.0 0.00 0.00 0.00
20201001132510 39 171 0.0 0.0 0.00 0.00 0.00
20201001123526 40 337 0.0 0.0 0.00 0.00 0.00
20201001121036 40 337 0.0 0.0 0.00 0.00 0.00
20201001114546 40 337 0.0 0.0 0.00 0.00 0.00
20201001112057 40 337 0.0 0.0 0.00 0.00 0.00
20201001044339 51 356 0.0 0.0 0.00 0.00 0.00
20201001043112 53 337 0.0 0.0 0.00 0.00 0.00
20201001034132 58 337 1.0 1.0 0.00 0.00 0.00
20201001032907 58 337 0.0 0.0 0.00 0.00 0.00
20201001025152 63 315 0.0 0.0 0.00 0.00 0.00
20201001023929 67 135 1.0 2.0 0.00 0.00 0.00
20201001022703 67 137 1.0 2.0 0.00 0.00 0.00
20201001021438 67 135 1.0 2.0 0.00 0.00 0.00
20201001020214 67 164 1.0 46.0 0.00 0.00 0.00
20201001014949 69 236 1.0 2.0 0.00 0.00 0.00
20201001013723 71 270 2.0 4.0 0.00 0.00 0.00
20201001011233 78 276 4.0 7.0 0.00 0.00 0.00
20201001003520 84 274 6.0 8.0 0.00 0.00 0.00
20201001002259 85 291 5.0 8.0 0.00 0.00 0.00
20200930235805 85 278 5.0 8.0 0.00 0.00 0.00
20200930230825 88 315 5.0 8.0 0.00 0.00 0.00
20200930224334 87 278 6.0 8.0 0.00 0.00 0.00
20200930220621 86 280 6.0 12.0 0.00 0.00 0.00
20200930215354 86 281 5.0 8.0 0.00 0.00 0.00
20200930214129 86 270 2.0 9.0 0.00 0.00 0.00
20200930212908 85 242 6.0 8.0 0.00 0.00 0.00
20200930211646 85 244 8.0 10.0 0.00 0.00 0.00
20200930203924 85 289 5.0 8.0 0.00 0.00 0.00
20200930202705 85 249 7.0 9.0 0.00 0.00 0.00
20200930200209 85 261 4.0 7.0 0.00 0.00 0.00
20200930194944 84 276 3.0 7.0 0.00 0.00 0.00
20200930193721 84 275 3.0 7.0 0.00 0.00 0.00
20200930192457 84 254 4.0 5.0 0.00 0.00 0.00
20200930191231 84 318 5.0 6.0 0.00 0.00 0.00
20200930190020 84 67 3.0 7.0 0.00 0.00 0.00